User: anonymous   Login
Location: B?jaj?g
(11.7167°N, 92.6667°E)
Time: 03:24:35
(UTC+00:00)
Language:

Okean-O - Orbit

View from above orbital plane
View from above orbital plane
View from above satellite
View from above satellite

Ground track
Ground track

The orbit data is extracted from the following two-line orbital elements,

1 25860U 99039A   20329.49352030  .00000097  00000-0  21562-4 0  9999
2 25860  98.2041 351.1988 0001855  87.8141 272.3280 14.76692035149225
Epoch (UTC): 24 November 2020 11:50:40
Eccentricity: 0.0001855
inclination: 98.2041°
perigee height: 638 km
apogee height: 641 km
right ascension of ascending node: 351.1988°
argument of perigee: 87.8141°
revolutions per day: 14.76692035
mean anomaly at epoch: 272.3280°
orbit number at epoch: 14922

The dashed part of the orbit path shows where the satellite is in the earth's shadow,  

DLR